MTSAT-2 (MSAS/PRN 137)

Last updated on Sept. 19, 2020, 5:47 a.m. UTC

1 28937U 06004A   20262.24215812 -.00000256  00000-0  00000-0 0  9990
2 28937   0.4195  93.6314 0004302  92.5005 230.0764  0.99078846 53300
UTC
Height (km)
Latitude
Longitude
Inclination
Orbital Period
UTC large
Height (km)
Speed (km/s)
/
Latitude / Longitude
Inclination (degrees)
Orbital Period (minutes)
Azimuth
Elevation
Range (km)
Doppler Factor
iOS Compass Heading
iOS Angle

Next 30 passes for location: Hong Kong

Rise time Rise Azimuth (degrees) Set time Set Azimuth (degrees) Duration Max altitude (degrees)

No matching passes for this satellites